Lid_Strength_Index
13 16 18 16 16 16 17 18 19 17 15 17 17 17 15 14 15 15 15 14 14 14 13 12 11 11 11 11 10 11 11 11 11 10 10 9 9 8 7 6 5 5 5 4
16 19 16 14 15 16 17 19 19 16 15 17 17 17 14 14 14 15 14 15 14 13 13 12 12 11 11 12 12 12 11 11 11 11 10 10 10 9 8 7 7 7 6 5
18 16 14 15 17 17 18 18 19 19 17 16 18 18 15 14 14 14 14 14 14 14 13 12 12 12 13 13 12 11 11 11 12 12 11 11 11 11 10 9 8 7 7 7
17 16 16 18 17 16 19 17 17 18 21 24 18 23 18 15 15 15 14 15 14 14 13 12 12 13 13 12 12 11 11 11 11 11 12 12 12 12 11 10 9 9 8 8
18 18 19 18 17 16 18 16 18 18 20 25 22 25 19 15 16 15 15 14 15 14 13 12 12 12 12 12 12 12 12 11 11 12 12 12 12 11 10 10 9 9 8 8
17 16 16 17 16 16 15 17 18 19 22 27 23 22 19 17 16 15 14 14 14 13 13 13 12 12 12 12 12 13 12 12 12 11 11 11 11 11 10 10 10 9 9 9
18 18 16 15 17 16 16 19 24 23 24 25 20 24 19 16 15 15 14 14 14 13 13 13 14 12 12 13 13 13 12 12 11 11 10 10 10 10 10 10 10 11 10 10
20 21 17 15 17 18 18 19 21 27 24 23 21 24 17 15 15 15 14 14 14 14 14 14 13 13 13 13 13 13 13 12 10 10 11 11 10 10 10 11 11 11 10 10
19 19 16 15 16 16 18 20 18 25 30 26 23 19 15 15 15 15 14 14 14 14 13 14 13 13 13 13 13 13 11 11 11 11 11 11 11 11 11 11 11 11 11 11
17 20 17 16 15 15 17 16 20 20 26 28 23 21 19 17 16 15 15 15 15 15 13 13 13 13 13 13 13 11 11 12 11 11 11 11 11 11 11 11 11 11 11 11
16 18 19 17 18 18 19 19 18 17 19 24 25 21 16 16 15 14 14 13 14 13 13 13 13 13 13 13 12 12 12 12 11 11 11 11 12 12 11 12 12 11 12 12
14 17 21 18 17 16 16 17 18 21 22 21 21 22 14 14 13 12 11 12 12 12 12 13 13 14 14 12 12 12 12 12 11 11 12 12 12 12 12 12 11 11 12 11
13 19 24 20 17 16 17 16 15 17 18 22 22 20 13 13 12 10 13 12 12 12 13 13 13 14 13 12 13 13 12 12 11 11 12 13 13 12 12 12 12 12 12 11
10 15 18 20 17 15 17 16 15 17 23 20 18 17 13 11 12 12 11 12 13 12 12 13 13 14 13 12 13 13 12 11 11 12 12 13 13 12 12 12 12 12 12 12
13 20 17 17 14 14 14 14 16 17 16 19 15 16 13 11 12 11 12 12 12 12 12 12 12 12 13 13 13 12 11 11 11 13 13 13 12 12 12 13 13 12 12 11
13 15 19 21 18 14 15 14 14 15 15 15 14 15 10 10 11 12 13 14 13 13 12 13 12 12 13 12 12 11 11 12 12 13 13 13 13 13 13 13 13 13 12 11
16 19 22 24 20 22 20 17 15 14 13 13 15 12 10 11 12 12 15 14 13 13 13 13 13 13 13 11 11 12 12 11 12 13 13 13 13 13 13 13 14 13 13 11
14 16 15 23 21 24 16 14 14 13 12 11 12 12 11 11 11 12 12 13 12 14 14 12 12 14 13 11 11 12 13 12 13 13 13 13 13 13 14 14 14 13 13 12
12 12 15 22 25 19 15 15 15 15 15 12 12 11 10 11 12 11 11 11 12 14 13 12 12 13 14 13 11 14 13 13 13 13 13 13 13 14 14 14 14 13 13 11
11 10 13 25 23 26 18 15 13 13 18 13 11 11 12 12 14 12 10 10 11 11 13 12 11 14 14 13 14 15 14 13 13 12 13 13 13 14 14 14 14 13 13 12
16 14 16 16 18 19 15 14 14 20 17 13 12 12 12 12 11 10 9 9 11 12 12 12 14 13 13 14 14 15 15 13 13 12 12 12 13 14 14 14 14 14 13 13
19 18 18 16 17 20 13 15 16 13 12 12 12 12 12 11 11 10 10 10 10 12 13 13 13 12 13 13 12 13 14 14 13 11 12 13 13 14 14 14 14 14 14 14
17 16 18 16 16 12 13 13 12 12 12 12 11 10 10 10 11 10 10 10 10 11 12 14 14 12 12 13 12 13 13 15 13 12 12 13 13 13 14 14 14 15 14 15
14 13 14 14 13 13 12 11 11 11 11 10 10 9 10 10 10 10 10 10 10 10 11 13 13 12 12 13 12 11 13 15 12 12 12 13 13 13 14 14 14 15 15 16
12 13 14 14 12 12 11 10 9 9 9 9 9 9 9 10 10 10 10 10 10 10 11 11 11 11 11 12 12 11 14 15 14 13 13 13 14 13 14 14 14 14 14 14
13 14 14 15 12 12 12 10 9 10 10 10 10 10 9 9 9 9 10 10 11 11 11 12 12 13 12 13 12 12 14 15 15 14 13 14 15 16 16 15 15 13 13 13